Location: ??????
(55.6130°N, 37.7882°E)
Time: 22:06:33
(UTC+00:00)

Envisat - Pass Details

Date: 24 June 2024
Orbit: 762 x 764 km, 98.3° (Epoch: 21 July)

Event Time Altitude Azimuth Distance (km) Brightness Sun altitude
Rises 23:04:25 0° 28° (NNE) 3,242 8.6 -8.6°
Reaches altitude 10° 23:08:30 10° 60° (ENE) 2,308 6.3 -8.3°
Maximum altitude 23:10:16 12° 81° (E) 2,187 5.8 -8.3°
Drops below altitude 10° 23:12:02 10° 102° (ESE) 2,302 5.6 -8.2°
Sets 23:16:04 0° 134° (SE) 3,220 6.0 -7.9°
